Вернуться в каталог

STARLINK-36945

АктивенСвязьVLEO
NORAD 68050·PAYLOAD·🇺🇸 United States

Запущен Mar 2, 2026 с Vandenberg Space Force Base

Loading…

Ближайшие Пролёты (ближайшие 24 часа)

TLE

СвежийSource: CelesTrak SupGP

Эпоха: Sep 15, 2026, 02:53 UTC

1 68050C 26041L   26258.12062500 -.00034586  00000+0 -10217-2 0  2589
2 68050  53.1580 245.0838 0001369  94.7306 133.0245 15.34410842    12

Отслеживайте STARLINK-36945 в реальном времени с AllMySat

Download on the App Store